[[{"header":{"parameterUnit":"m.s-1","parameterCategory":2,"la1":30.2991,"la2":30.254,"lo1":-89.0895,"lo2":-89.0444,"dy":0.0017,"dx":0.0017,"nx":28,"ny":28,"refTime":"2024-07-24T03:00:00:Z","depth":"0","parameterNumber":2,"parameterNumberName":"U-component_of_CURRENTS"},"data":[0,0,0,0,0,0,0,0,0,0,0,0,0,0,0,0,0,0,0,0,0,0,0,0,0,0,0,0,0,0,0,0,0,0,0,0,0,0,0,0,0,0,0,0,0,0,0,0,0,0,0,0,0,0,0,0,0,0,-0.0213,-0.0213,0,-0.0152,-0.0151,-0.015,-0.0127,-0.0127,-0.0127,-0.0128,-0.0006,-0.0002,0.0001,0,0,0,0,0,0,0,0,0,0,0,0,0,-0.0181,-0.0183,-0.0213,-0.0213,-0.0212,-0.0152,-0.0151,-0.015,-0.0127,-0.0127,-0.0128,-0.0128,-0.0007,-0.0003,0.0002,0,0,0,0,0,0,0,0,0,0,0,0,0,-0.0164,-0.0183,-0.0213,-0.0195,-0.0193,-0.0152,-0.0151,-0.015,-0.0127,-0.0127,-0.0128,-0.0128,-0.0008,-0.0003,0.0002,0.0047,0,0,0.0019,0.0021,0,0,0,0,0,0,0,0,-0.0165,-0.0165,-0.0198,-0.0196,-0.0194,-0.0149,-0.0095,-0.0082,-0.0126,-0.0149,-0.0128,-0.0128,-0.0049,-0.004,-0.0025,0.0052,0.0058,0.0019,0.0022,0.0025,0.0026,0,0,0,0,0,0,0,-0.0166,-0.0166,-0.0187,-0.0198,-0.0195,-0.0145,-0.0144,-0.0092,-0.0094,-0.0148,-0.0146,-0.0142,-0.0047,-0.0031,-0.0022,0.0059,0.0019,0.0024,0.0027,0.0029,0.0163,0.0163,0,0,0,0,0,0,-0.0184,-0.0168,-0.0189,-0.0185,-0.0182,-0.0146,-0.0145,-0.0161,-0.0096,-0.0088,-0.0142,-0.0142,-0.004,-0.0029,-0.0018,0.0036,0.0025,0.003,0.0033,0.0162,0.0163,0.0163,0,0,0,0,0,0,-0.0184,-0.0188,-0.0191,-0.0175,-0.0173,-0.0147,-0.0165,-0.016,-0.0138,-0.0093,-0.0083,-0.0126,-0.004,-0.0025,0.0033,0.0041,0.0032,0.0037,0.0162,0.0162,0.0163,0.0147,0,0,0,0,0,0,-0.0184,-0.0188,-0.0189,-0.0178,-0.0175,-0.0153,-0.0164,-0.0158,-0.0136,-0.0135,-0.0075,-0.0065,-0.0039,0.0025,0.0039,0.0049,0.0041,0.0161,0.0162,0.0163,0.0147,0.0147,0.0146,0,0,0,0,0,-0.0183,-0.0175,-0.0191,-0.0192,-0.0184,-0.0152,-0.0144,-0.0126,-0.0135,-0.0111,-0.0083,-0.0067,0.0037,0.0031,0.0046,0.0058,0.0161,0.0162,0.0163,0.0147,0.0147,0.0146,0,0,0,0,0,0,-0.014,-0.0172,-0.0188,-0.0187,-0.017,-0.0149,-0.0118,-0.0121,-0.0081,-0.0077,-0.0048,-0.0034,0.0014,0.0042,0.0033,0.0095,0.0097,0.0101,0.0079,0.008,0.0079,0.0069,0.0046,0,0,0,0,0,-0.0141,-0.0154,-0.0163,-0.0154,-0.0148,-0.0137,-0.0119,-0.0113,-0.0085,-0.0068,-0.0035,-0.0001,0.0029,0.0059,0.0096,0.0147,0.0156,0.0159,0.0158,0.0158,0.0159,0.0175,0.0176,0.0165,0.0165,0.0165,0,0,-0.0121,-0.0137,-0.0143,-0.0147,-0.0131,-0.0117,-0.0125,-0.0093,-0.0082,-0.0058,-0.0016,0.0006,0.0041,0.0085,0.0108,0.0112,0.0166,0.0159,0.0158,0.016,0.0176,0.0177,0.0177,0.0166,0.0166,0.0165,0,0,-0.0084,-0.0102,-0.0105,-0.0096,-0.0085,-0.0079,-0.0074,-0.0057,-0.0046,-0.0008,-0.0003,0.0023,0.0088,0.0103,0.0118,0.0144,0.016,0.0154,0.0155,0.017,0.0171,0.0171,0.018,0.0182,0.0158,0.0158,0.0158,0,-0.0063,-0.008,-0.0088,-0.0082,-0.0076,-0.0068,-0.0059,-0.0039,-0.0005,0.0001,0.0008,0.0061,0.0092,0.012,0.0121,0.0143,0.0152,0.0152,0.0169,0.017,0.0171,0.018,0.0182,0.0158,0.0158,0.0158,0.0158,0,-0.0039,-0.0046,-0.0033,-0.0048,-0.0029,-0.0012,-0.0006,0.0015,0.002,0.0025,0.0055,0.0088,0.0113,0.0123,0.0134,0.0152,0.0156,0.0161,0.0167,0.0171,0.018,0.0182,0.0157,0.0157,0.0157,0.0157,0,0,-0.0043,-0.0029,-0.0031,-0.0036,-0.0021,-0.0009,0.0018,0.0028,0.0032,0.0064,0.0071,0.0109,0.0111,0.0128,0.014,0.0154,0.0166,0.0162,0.0163,0.0166,0.0197,0.0224,0.0229,0.0175,0.0176,0.0176,0.0198,0,-0.0036,-0.003,-0.0023,-0.0009,-0.0009,0.0005,0.0025,0.0041,0.0056,0.0074,0.0091,0.0111,0.0118,0.0126,0.0141,0.0161,0.0173,0.016,0.0197,0.0198,0.0218,0.0234,0.0294,0.0322,0.0201,0.0201,0.0201,0,-0.0045,-0.0042,-0.0035,-0.0021,-0.0019,-0.0006,0.0006,0.0026,0.0054,0.0067,0.0087,0.0105,0.013,0.0133,0.017,0.0162,0.0177,0.0192,0.0193,0.0227,0.0231,0.03,0.0331,0.0433,0.0205,0.0205,0.0205,0,-0.0079,-0.006,-0.0061,-0.0057,-0.0031,-0.0026,-0.0012,0.0015,0.003,0.0058,0.0075,0.0104,0.0123,0.0149,0.0184,0.0177,0.0226,0.022,0.0256,0.0257,0.0322,0.0328,0.0454,0.0242,0.0242,0.0242,0.0242,0,-0.0106,-0.0108,-0.008,-0.0085,-0.0082,-0.0054,-0.0046,-0.0026,0.0008,0.0031,0.0063,0.009,0.0129,0.0165,0.0188,0.0238,0.023,0.0261,0.027,0.0318,0.0323,0.0425,0.0493,0.0243,0.0242,0.0242,0.0242,0,-0.0154,-0.0134,-0.0135,-0.011,-0.0102,-0.0104,-0.0068,-0.0057,-0.0021,0.0011,0.0023,0.0081,0.0137,0.018,0.0227,0.0248,0.0331,0.0303,0.0355,0.0369,0.0493,0.0558,0.059,0.0562,0.0345,0.0346,0.0346,0,-0.0182,-0.0186,-0.0163,-0.016,-0.0153,-0.0142,-0.0128,-0.0085,-0.0065,0.001,0.0025,0.0093,0.0154,0.0238,0.03,0.0358,0.0379,0.0425,0.0422,0.052,0.0599,0.0536,0.0505,0.0498,0.0499,0.0501,0.0502,0,-0.0236,-0.0223,-0.0222,-0.021,-0.0201,-0.0182,-0.0157,-0.0139,-0.0075,-0.0026,0.0049,0.0108,0.0217,0.0336,0.0414,0.0438,0.0487,0.0458,0.0557,0.0734,0.0679,0.065,0.0454,0.0516,0.0515,0.0514,0.0513,0.0513,-0.0278,-0.0283,-0.027,-0.0257,-0.0246,-0.0218,-0.0175,-0.0134,-0.0079,0.0056,0.0071,0.024,0.0408,0.0544,0.0537,0.0676,0.0591,0.073,0.0799,0.072,0.0709,0.0538,0.0611,0.061,0.061,0.0609,0.0608,0,-0.0325,-0.0312,-0.0309,-0.0285,-0.0265,-0.0244,-0.0182,-0.0097,-0.0003,0.0143,0.0246,0.0537,0.069,0.0813,0.1019,0.1067,0.0919,0.1077,0.104,0.0984,0.0859,0.0885,0.1026,0.1026,0.1026,0.1026,0.1026,0.1026,-0.0349,-0.0347,-0.033,-0.0301,-0.0275,-0.0175,-0.0118,0.0006,0.0154,0.0421,0.0656,0.0783,0.1084,0.1419,0.1563,0.149,0.1416,0.1374,0.1313,0.1328,0.1301,0.1275,0.1314,0.1542,0.1543,0.1353,0.1354,0.1354]},{"header":{"parameterUnit":"m.s-1","parameterCategory":2,"la1":30.2991,"la2":30.254,"lo1":-89.0895,"lo2":-89.0444,"dy":0.0017,"dx":0.0017,"nx":28,"ny":28,"refTime":"2024-07-24T03:00:00:Z","depth":"0","parameterNumber":3,"parameterNumberName":"V-component_of_CURRENTS"},"data":[0,0,0,0,0,0,0,0,0,0,0,0,0,0,0,0,0,0,0,0,0,0,0,0,0,0,0,0,0,0,0,0,0,0,0,0,0,0,0,0,0,0,0,0,0,0,0,0,0,0,0,0,0,0,0,0,0,0,-0.1551,-0.1553,0,-0.1656,-0.1657,-0.1658,-0.1752,-0.1754,-0.1755,-0.1757,-0.1649,-0.1645,-0.1641,0,0,0,0,0,0,0,0,0,0,0,0,0,-0.132,-0.1324,-0.1551,-0.1553,-0.1554,-0.1656,-0.1657,-0.1658,-0.1752,-0.1754,-0.1756,-0.1757,-0.1651,-0.1645,-0.164,0,0,0,0,0,0,0,0,0,0,0,0,0,-0.1418,-0.1325,-0.1551,-0.1617,-0.1624,-0.1656,-0.1657,-0.1658,-0.1752,-0.1754,-0.1756,-0.1758,-0.1652,-0.1646,-0.164,-0.1555,0,0,-0.162,-0.1617,0,0,0,0,0,0,0,0,-0.1413,-0.1426,-0.1605,-0.1612,-0.1621,-0.1697,-0.1537,-0.1615,-0.1751,-0.1699,-0.1757,-0.1759,-0.1646,-0.1641,-0.1652,-0.155,-0.1545,-0.1619,-0.1616,-0.1613,-0.1611,0,0,0,0,0,0,0,-0.1406,-0.1421,-0.1588,-0.1607,-0.1616,-0.1603,-0.162,-0.1552,-0.1651,-0.1703,-0.1712,-0.1729,-0.1649,-0.1659,-0.165,-0.1543,-0.162,-0.1614,-0.161,-0.1607,-0.1392,-0.1391,0,0,0,0,0,0,-0.1406,-0.1416,-0.1585,-0.1592,-0.1525,-0.1606,-0.1625,-0.1667,-0.1657,-0.1661,-0.1727,-0.1733,-0.1668,-0.1657,-0.1646,-0.1547,-0.1613,-0.1607,-0.1603,-0.1394,-0.1392,-0.139,0,0,0,0,0,0,-0.1401,-0.1421,-0.1581,-0.1508,-0.1528,-0.1609,-0.1654,-0.1668,-0.1675,-0.1678,-0.1678,-0.1722,-0.167,-0.1655,-0.1569,-0.1543,-0.1604,-0.1598,-0.1396,-0.1394,-0.1391,-0.1345,0,0,0,0,0,0,-0.1394,-0.1419,-0.1425,-0.1509,-0.1532,-0.1574,-0.1653,-0.1668,-0.1685,-0.1694,-0.1671,-0.1666,-0.167,-0.1578,-0.1563,-0.1535,-0.1593,-0.1399,-0.1395,-0.1392,-0.1349,-0.1341,-0.1334,0,0,0,0,0,-0.1385,-0.1385,-0.1425,-0.1444,-0.1548,-0.1572,-0.158,-0.1642,-0.1682,-0.1661,-0.1652,-0.1666,-0.1547,-0.157,-0.1552,-0.1523,-0.14,-0.1396,-0.1392,-0.1352,-0.1342,-0.1334,0,0,0,0,0,0,-0.1282,-0.1397,-0.1443,-0.1478,-0.1512,-0.159,-0.1577,-0.1623,-0.1605,-0.1605,-0.1616,-0.1606,-0.1529,-0.1518,-0.1544,-0.1453,-0.1484,-0.1476,-0.146,-0.1451,-0.1443,-0.1463,-0.1588,0,0,0,0,0,-0.1265,-0.1301,-0.139,-0.141,-0.1424,-0.1494,-0.1507,-0.155,-0.1562,-0.1561,-0.155,-0.153,-0.1496,-0.1467,-0.1428,-0.135,-0.1369,-0.1328,-0.132,-0.1314,-0.1318,-0.1324,-0.1318,-0.1376,-0.1376,-0.1376,0,0,-0.1233,-0.1298,-0.1319,-0.1389,-0.1423,-0.1432,-0.1505,-0.1514,-0.1516,-0.1539,-0.1498,-0.1484,-0.1467,-0.1404,-0.137,-0.1391,-0.1303,-0.1309,-0.1304,-0.1311,-0.1319,-0.1314,-0.1309,-0.1373,-0.1374,-0.1374,0,0,-0.1183,-0.1237,-0.1251,-0.1273,-0.1322,-0.1358,-0.1355,-0.1409,-0.1422,-0.138,-0.1412,-0.1381,-0.1315,-0.132,-0.1311,-0.1227,-0.126,-0.1216,-0.1193,-0.1198,-0.1194,-0.1191,-0.1198,-0.1196,-0.1218,-0.1218,-0.1217,0,-0.1142,-0.1192,-0.1244,-0.1253,-0.1271,-0.1322,-0.1322,-0.1326,-0.1343,-0.1343,-0.1351,-0.1308,-0.1284,-0.1251,-0.1238,-0.1211,-0.1225,-0.1231,-0.1191,-0.1189,-0.1186,-0.1195,-0.1193,-0.1215,-0.1215,-0.1215,-0.1216,0,-0.1117,-0.1142,-0.1135,-0.1184,-0.1185,-0.1186,-0.1217,-0.12,-0.1218,-0.1246,-0.1207,-0.119,-0.1184,-0.1168,-0.1174,-0.1149,-0.1166,-0.118,-0.1221,-0.1178,-0.1189,-0.1188,-0.1211,-0.1212,-0.1213,-0.1213,0,0,-0.1097,-0.1122,-0.1125,-0.1136,-0.1158,-0.1165,-0.1133,-0.1144,-0.1146,-0.1131,-0.1137,-0.1089,-0.1114,-0.1106,-0.1115,-0.1117,-0.1104,-0.1142,-0.1144,-0.1162,-0.112,-0.1138,-0.114,-0.1119,-0.1118,-0.1118,-0.1132,0,-0.1076,-0.1084,-0.1099,-0.1084,-0.109,-0.1105,-0.1081,-0.1083,-0.1085,-0.1081,-0.1083,-0.1072,-0.1081,-0.1085,-0.1084,-0.1103,-0.1102,-0.11,-0.1148,-0.1149,-0.1182,-0.1139,-0.1136,-0.1149,-0.1132,-0.1132,-0.1131,0,-0.1072,-0.1081,-0.1072,-0.1069,-0.1071,-0.1058,-0.1053,-0.1038,-0.1033,-0.1036,-0.1035,-0.1045,-0.1041,-0.1057,-0.107,-0.1073,-0.109,-0.1104,-0.1105,-0.1142,-0.1166,-0.1189,-0.1149,-0.1189,-0.1131,-0.1131,-0.1131,0,-0.1065,-0.1066,-0.1061,-0.1062,-0.1056,-0.1046,-0.104,-0.103,-0.102,-0.1018,-0.1017,-0.1019,-0.1023,-0.1042,-0.1068,-0.1073,-0.1091,-0.1103,-0.1131,-0.1133,-0.115,-0.1154,-0.1168,-0.1107,-0.1107,-0.1107,-0.1107,0,-0.1064,-0.1059,-0.1059,-0.1059,-0.1047,-0.1042,-0.1025,-0.1019,-0.1007,-0.0992,-0.1002,-0.0993,-0.1021,-0.1035,-0.1062,-0.1096,-0.1087,-0.1122,-0.1135,-0.1131,-0.1133,-0.1186,-0.1239,-0.1108,-0.1107,-0.1107,-0.1107,0,-0.1062,-0.1063,-0.1057,-0.105,-0.1046,-0.104,-0.102,-0.1004,-0.0997,-0.0979,-0.0977,-0.0977,-0.0995,-0.1026,-0.1057,-0.1087,-0.1162,-0.1131,-0.1126,-0.1138,-0.1207,-0.1258,-0.1324,-0.1386,-0.1166,-0.1167,-0.1167,0,-0.1063,-0.1063,-0.1055,-0.1053,-0.105,-0.1039,-0.1023,-0.1005,-0.0982,-0.0964,-0.0949,-0.0962,-0.0953,-0.1012,-0.1084,-0.1138,-0.1181,-0.1161,-0.1165,-0.1206,-0.1272,-0.1305,-0.1355,-0.1164,-0.1164,-0.1164,-0.1165,0,-0.1067,-0.1065,-0.1063,-0.1057,-0.1044,-0.1015,-0.099,-0.0965,-0.0934,-0.0911,-0.0876,-0.0869,-0.0947,-0.099,-0.1078,-0.1128,-0.1226,-0.1169,-0.121,-0.1271,-0.131,-0.1378,-0.1163,-0.1167,-0.1167,-0.1167,-0.1167,-0.1167,-0.1072,-0.1073,-0.107,-0.1062,-0.104,-0.0982,-0.0896,-0.0871,-0.0813,-0.0697,-0.0769,-0.0667,-0.0826,-0.0955,-0.108,-0.1245,-0.1276,-0.125,-0.1307,-0.1333,-0.1399,-0.1193,-0.1216,-0.1216,-0.1216,-0.1216,-0.1216,0,-0.1093,-0.1084,-0.1075,-0.1028,-0.0955,-0.0957,-0.0855,-0.0716,-0.0597,-0.0536,-0.0469,-0.0445,-0.0646,-0.0842,-0.1119,-0.1291,-0.1406,-0.1386,-0.1421,-0.1468,-0.1269,-0.1272,-0.131,-0.131,-0.131,-0.131,-0.131,-0.131,-0.1102,-0.1104,-0.1092,-0.0966,-0.0897,-0.0692,-0.059,-0.0426,-0.0299,-0.0103,0.0017,0.0039,-0.0106,-0.0745,-0.1182,-0.1349,-0.1503,-0.1572,-0.1653,-0.1492,-0.1482,-0.1473,-0.1485,-0.1567,-0.1568,-0.182,-0.1823,-0.1825]}],[{"header":{"parameterUnit":"m.s-1","parameterCategory":2,"la1":30.2991,"la2":30.254,"lo1":-89.0895,"lo2":-89.0444,"dy":0.0017,"dx":0.0017,"nx":28,"ny":28,"refTime":"2024-07-24T03:00:00:Z","depth":"2","parameterNumber":2,"parameterNumberName":"U-component_of_CURRENTS"},"data":[0,0,0,0,0,0,0,0,0,0,0,0,0,0,0,0,0,0,0,0,0,0,0,0,0,0,0,0,0,0,0,0,0,0,0,0,0,0,0,0,0,0,0,0,0,0,0,0,0,0,0,0,0,0,0,0,0,0,0.0428,0.0429,0,0.0423,0.0423,0.0422,0.039,0.039,0.0389,0.0389,0.0338,0.0337,0.0336,0,0,0,0,0,0,0,0,0,0,0,0,0,0.0366,0.0367,0.0428,0.0429,0.0429,0.0423,0.0423,0.0422,0.039,0.039,0.0389,0.0389,0.0338,0.0337,0.0336,0,0,0,0,0,0,0,0,0,0,0,0,0,0.0377,0.0368,0.0428,0.0415,0.0414,0.0423,0.0423,0.0422,0.039,0.039,0.0389,0.0388,0.0338,0.0337,0.0336,0.0341,0,0,0.0331,0.0331,0,0,0,0,0,0,0,0,0.0376,0.0379,0.0416,0.0416,0.0415,0.041,0.0382,0.0394,0.039,0.0395,0.0389,0.0388,0.036,0.0357,0.0353,0.0338,0.0336,0.0331,0.033,0.033,0.0329,0,0,0,0,0,0,0,0.0376,0.0379,0.0423,0.0417,0.0416,0.0394,0.0395,0.0384,0.0378,0.0395,0.0393,0.0399,0.0359,0.0355,0.0352,0.0335,0.0331,0.033,0.0329,0.0329,0.0332,0.0333,0,0,0,0,0,0,0.0387,0.0379,0.0423,0.0423,0.0398,0.0396,0.0397,0.0409,0.0379,0.0375,0.0399,0.0397,0.0357,0.0353,0.035,0.0357,0.033,0.0328,0.0328,0.0332,0.0333,0.0334,0,0,0,0,0,0,0.0386,0.0391,0.0423,0.0403,0.0406,0.0399,0.0412,0.0409,0.0403,0.0384,0.0378,0.0396,0.0357,0.0352,0.0345,0.0354,0.0328,0.0327,0.033,0.0332,0.0333,0.0369,0,0,0,0,0,0,0.0384,0.0391,0.0396,0.0404,0.0407,0.0429,0.0413,0.041,0.0409,0.0406,0.0379,0.0374,0.0356,0.0347,0.0344,0.0352,0.0325,0.0329,0.0331,0.0333,0.0366,0.0371,0.0375,0,0,0,0,0,0.0382,0.0392,0.0396,0.0401,0.0417,0.043,0.0429,0.0419,0.041,0.0409,0.0396,0.0375,0.0356,0.0347,0.0342,0.035,0.0328,0.0331,0.0333,0.0364,0.037,0.0375,0,0,0,0,0,0,0.0358,0.039,0.0395,0.0411,0.0422,0.0426,0.0424,0.0422,0.0411,0.0406,0.0384,0.0378,0.0376,0.0363,0.0353,0.0359,0.034,0.0342,0.0366,0.0371,0.0376,0.0374,0.0324,0,0,0,0,0,0.036,0.0378,0.0402,0.0412,0.0422,0.0424,0.0426,0.0424,0.0421,0.0415,0.0399,0.0386,0.0383,0.0376,0.0367,0.0368,0.037,0.0373,0.0377,0.0381,0.0379,0.0396,0.0402,0.0341,0.0341,0.0341,0,0,0.0349,0.0372,0.0379,0.0408,0.0414,0.0424,0.0422,0.043,0.0432,0.0412,0.0401,0.0399,0.0388,0.039,0.0388,0.0377,0.0404,0.0384,0.0387,0.0382,0.0399,0.0405,0.041,0.0342,0.0342,0.0342,0,0,0.0341,0.0364,0.0376,0.0392,0.0415,0.0421,0.0427,0.0436,0.0434,0.0435,0.0425,0.043,0.0415,0.0414,0.0412,0.0437,0.0428,0.0437,0.0454,0.0472,0.0477,0.0482,0.0509,0.0515,0.0438,0.0438,0.0438,0,0.0323,0.0347,0.0378,0.0395,0.0402,0.0422,0.0427,0.0435,0.0437,0.0441,0.0433,0.0438,0.0426,0.0441,0.045,0.0445,0.0458,0.0433,0.0478,0.0482,0.0486,0.0512,0.0519,0.044,0.0439,0.0439,0.0439,0,0.0327,0.0343,0.0352,0.0383,0.0396,0.0405,0.0429,0.0438,0.0441,0.0449,0.0465,0.0464,0.0467,0.0472,0.0465,0.0493,0.0496,0.0482,0.0463,0.0494,0.052,0.0527,0.0442,0.0442,0.0441,0.0441,0,0,0.0284,0.0342,0.0341,0.0352,0.0389,0.0398,0.0417,0.0438,0.045,0.0464,0.048,0.049,0.0501,0.05,0.0504,0.0521,0.0565,0.0516,0.0516,0.054,0.0618,0.0676,0.0688,0.0561,0.0562,0.0563,0.0631,0,0.0268,0.0294,0.0329,0.0338,0.035,0.0383,0.0398,0.0423,0.0445,0.0469,0.0496,0.0511,0.051,0.0519,0.0539,0.0559,0.0581,0.0548,0.0585,0.0586,0.0632,0.0697,0.0601,0.0658,0.0637,0.0638,0.0639,0,0.0251,0.0273,0.0281,0.0321,0.0329,0.0335,0.0366,0.0386,0.0439,0.0462,0.0499,0.0525,0.0567,0.0554,0.0611,0.0593,0.0606,0.062,0.0623,0.0666,0.0657,0.062,0.067,0.0649,0.0648,0.0647,0.0647,0,0.0196,0.0236,0.0237,0.0249,0.0298,0.0301,0.0324,0.0372,0.04,0.046,0.0495,0.0546,0.0579,0.0608,0.0656,0.0632,0.0722,0.0688,0.0753,0.0758,0.0677,0.0673,0.0719,0.0719,0.0718,0.0718,0.0718,0,0.0162,0.0161,0.0208,0.0207,0.0211,0.0259,0.0274,0.0312,0.0376,0.0424,0.0485,0.0542,0.0594,0.0658,0.0678,0.0761,0.0743,0.0777,0.0787,0.069,0.0687,0.0669,0.0663,0.0721,0.072,0.072,0.0719,0,0.0095,0.0128,0.0131,0.0172,0.0183,0.0181,0.0242,0.0268,0.0336,0.0403,0.0429,0.0545,0.065,0.0713,0.0779,0.0802,0.0859,0.0882,0.0781,0.078,0.0872,0.0867,0.0963,0.0966,0.0968,0.097,0.0972,0,0.0064,0.0059,0.009,0.0095,0.0107,0.0126,0.0151,0.0228,0.0274,0.0414,0.0452,0.0582,0.0694,0.0845,0.0928,0.1013,0.0946,0.0922,0.0861,0.0902,0.0901,0.0891,0.0883,0.0763,0.0763,0.0763,0.0763,0,0.0005,0.0011,0.0021,0.0032,0.0046,0.0083,0.013,0.0165,0.0278,0.036,0.0498,0.0602,0.0798,0.0877,0.1001,0.1023,0.0909,0.0927,0.0988,0.0734,0.0724,0.072,0.0716,0.0762,0.0762,0.0762,0.0762,0.0762,-0.0042,-0.0049,-0.003,-0.0022,0.0004,0.0055,0.0099,0.0177,0.0271,0.0438,0.0516,0.0666,0.0737,0.0942,0.0966,0.0984,0.104,0.0916,0.0911,0.0907,0.089,0.0887,0.0951,0.0953,0.0954,0.0955,0.0955,0,-0.0088,-0.008,-0.0073,-0.0047,-0.0017,0.0017,0.0108,0.0186,0.0311,0.0444,0.0588,0.0636,0.0734,0.0793,0.085,0.0902,0.0858,0.082,0.0693,0.0696,0.0699,0.0665,0.0669,0.0668,0.0668,0.0667,0,0,-0.0105,-0.0112,-0.0096,-0.0062,-0.003,0.0068,0.0138,0.0249,0.0358,0.0489,0.0568,0.0735,0.0763,0.0696,0.0711,0.0674,0.0677,0.0666,0.0893,0.0744,0.0744,0.0756,0.071,0,0,0,0,0]},{"header":{"parameterUnit":"m.s-1","parameterCategory":2,"la1":30.2991,"la2":30.254,"lo1":-89.0895,"lo2":-89.0444,"dy":0.0017,"dx":0.0017,"nx":28,"ny":28,"refTime":"2024-07-24T03:00:00:Z","depth":"2","parameterNumber":3,"parameterNumberName":"V-component_of_CURRENTS"},"data":[0,0,0,0,0,0,0,0,0,0,0,0,0,0,0,0,0,0,0,0,0,0,0,0,0,0,0,0,0,0,0,0,0,0,0,0,0,0,0,0,0,0,0,0,0,0,0,0,0,0,0,0,0,0,0,0,0,0,0.0142,0.0141,0,0.0047,0.0046,0.0045,-0.0024,-0.0025,-0.0025,-0.0026,-0.0112,-0.0114,-0.0116,0,0,0,0,0,0,0,0,0,0,0,0,0,0.0219,0.0219,0.0142,0.0141,0.014,0.0047,0.0046,0.0044,-0.0024,-0.0025,-0.0025,-0.0026,-0.0112,-0.0114,-0.0116,0,0,0,0,0,0,0,0,0,0,0,0,0,0.0162,0.0218,0.0142,0.0094,0.0089,0.0047,0.0046,0.0044,-0.0024,-0.0025,-0.0026,-0.0026,-0.0111,-0.0113,-0.0116,-0.0113,0,0,-0.0124,-0.0125,0,0,0,0,0,0,0,0,0.0165,0.0159,0.0102,0.0097,0.0091,0.0022,0.0041,-0.0008,-0.0024,0.0019,-0.0026,-0.0027,-0.0066,-0.0073,-0.0088,-0.0118,-0.0121,-0.0124,-0.0126,-0.0127,-0.0128,0,0,0,0,0,0,0,0.0169,0.0163,0.0105,0.0101,0.0094,0.0061,0.0053,0.0031,-0.0016,0.0016,0.001,-0.0001,-0.0069,-0.0085,-0.009,-0.0122,-0.0124,-0.0126,-0.0128,-0.0129,-0.0192,-0.0192,0,0,0,0,0,0,0.0183,0.0167,0.0108,0.0102,0.0126,0.0061,0.0051,0.0045,-0.0017,-0.0027,0.0,-0.0004,-0.008,-0.0087,-0.0094,-0.0125,-0.0127,-0.0129,-0.0131,-0.0192,-0.0192,-0.0192,0,0,0,0,0,0,0.0186,0.0179,0.0112,0.0131,0.012,0.0061,0.0055,0.0044,0.0006,-0.0029,-0.0039,-0.0029,-0.0081,-0.009,-0.0128,-0.0128,-0.013,-0.0133,-0.0191,-0.0192,-0.0192,-0.0169,0,0,0,0,0,0,0.0188,0.0181,0.0174,0.0133,0.012,0.0078,0.0055,0.0043,0.0002,-0.0005,-0.0057,-0.0065,-0.0083,-0.0124,-0.0131,-0.0132,-0.0135,-0.0191,-0.0191,-0.0192,-0.0169,-0.0168,-0.0167,0,0,0,0,0,0.0192,0.0192,0.0175,0.0167,0.0115,0.0077,0.0067,0.0022,0.0001,-0.0015,-0.0051,-0.0064,-0.013,-0.0127,-0.0134,-0.0136,-0.0191,-0.0191,-0.0192,-0.017,-0.0168,-0.0167,0,0,0,0,0,0,0.0225,0.0184,0.0164,0.0152,0.0112,0.0065,0.0045,0.0014,-0.0028,-0.0039,-0.0071,-0.0081,-0.0115,-0.0128,-0.0124,-0.0154,-0.016,-0.0162,-0.0141,-0.014,-0.0139,-0.0131,-0.0137,0,0,0,0,0,0.023,0.0217,0.0171,0.016,0.014,0.0089,0.0064,0.0032,-0.0007,-0.0029,-0.0065,-0.0096,-0.0117,-0.0133,-0.0158,-0.0176,-0.0189,-0.018,-0.0179,-0.0178,-0.0176,-0.0197,-0.0197,-0.0193,-0.0193,-0.0193,0,0,0.0242,0.0216,0.0209,0.0165,0.013,0.0103,0.0071,0.003,0.0011,-0.0029,-0.007,-0.01,-0.0123,-0.0145,-0.016,-0.0159,-0.0186,-0.0178,-0.0177,-0.0176,-0.0197,-0.0197,-0.0198,-0.0193,-0.0193,-0.0193,0,0,0.0256,0.0232,0.0219,0.0186,0.0131,0.0104,0.009,0.0031,0.0005,-0.0036,-0.0063,-0.0095,-0.0136,-0.0148,-0.0157,-0.0165,-0.0183,-0.0173,-0.0156,-0.0176,-0.0177,-0.0177,-0.0192,-0.0195,-0.0166,-0.0166,-0.0166,0,0.0267,0.0245,0.021,0.0184,0.0159,0.0105,0.0084,0.0056,-0.0008,-0.0021,-0.0047,-0.0106,-0.0133,-0.0142,-0.0148,-0.0161,-0.0176,-0.0159,-0.0174,-0.0175,-0.0176,-0.0192,-0.0194,-0.0165,-0.0165,-0.0166,-0.0166,0,0.0268,0.0242,0.0231,0.0186,0.016,0.0129,0.0089,0.0059,0.002,-0.0007,-0.0044,-0.0085,-0.0117,-0.0127,-0.0143,-0.0156,-0.0166,-0.0174,-0.0176,-0.0175,-0.0192,-0.0195,-0.0164,-0.0164,-0.0165,-0.0165,0,0,0.0301,0.0244,0.0234,0.0212,0.0154,0.0133,0.0111,0.0077,0.0066,0.0009,-0.0005,-0.0051,-0.0081,-0.0094,-0.0118,-0.0134,-0.0158,-0.0157,-0.0159,-0.0168,-0.0202,-0.02,-0.0204,-0.0172,-0.0173,-0.0173,-0.021,0,0.0301,0.0265,0.0238,0.0205,0.0179,0.0139,0.0129,0.0096,0.0065,0.0041,0.0004,-0.0026,-0.0063,-0.0083,-0.0106,-0.0148,-0.0166,-0.0147,-0.0205,-0.0207,-0.0202,-0.0207,-0.0144,-0.0171,-0.0213,-0.0214,-0.0214,0,0.0297,0.0274,0.0242,0.0207,0.0195,0.0175,0.0149,0.0132,0.0103,0.008,0.0046,0.0011,-0.0026,-0.0058,-0.0127,-0.0116,-0.016,-0.019,-0.0192,-0.02,-0.0211,-0.018,-0.0176,-0.022,-0.0219,-0.0219,-0.0218,0,0.0316,0.0273,0.025,0.0232,0.0192,0.0179,0.0162,0.0136,0.0132,0.0099,0.0089,0.0039,0.0009,-0.0053,-0.0128,-0.0133,-0.0197,-0.0209,-0.0245,-0.0246,-0.0208,-0.0204,-0.0255,-0.0255,-0.0255,-0.0255,-0.0255,0,0.0314,0.0292,0.0254,0.0235,0.0226,0.0193,0.0187,0.0168,0.0152,0.0155,0.0104,0.0101,0.0005,-0.0043,-0.0113,-0.0188,-0.019,-0.0244,-0.0256,-0.0198,-0.0193,-0.0248,-0.0246,-0.0256,-0.0256,-0.0256,-0.0256,0,0.0317,0.0291,0.0264,0.023,0.0225,0.0213,0.0202,0.0206,0.0184,0.0186,0.0174,0.0136,0.0074,-0.0012,-0.0105,-0.0166,-0.0237,-0.0262,-0.0187,-0.0189,-0.0277,-0.0274,-0.0308,-0.0309,-0.0309,-0.0309,-0.0309,0,0.0311,0.0293,0.0263,0.0259,0.0238,0.0227,0.0231,0.0216,0.0223,0.0215,0.0222,0.0171,0.0158,0.0029,-0.0082,-0.0194,-0.023,-0.0224,-0.0225,-0.0275,-0.0283,-0.028,-0.0277,-0.0165,-0.0164,-0.0163,-0.0163,0,0.0297,0.0281,0.0262,0.0258,0.0254,0.0265,0.0263,0.0278,0.027,0.0283,0.0295,0.0291,0.0193,0.0114,-0.0039,-0.0108,-0.0203,-0.0211,-0.028,-0.0163,-0.0143,-0.015,-0.0151,-0.0155,-0.0156,-0.0156,-0.0157,-0.0157,0.0281,0.027,0.0246,0.024,0.0259,0.0281,0.0295,0.0315,0.0338,0.0362,0.0364,0.0367,0.0292,0.0118,-0.0007,-0.0153,-0.0153,-0.0194,-0.0195,-0.0197,-0.0176,-0.0158,-0.0168,-0.0169,-0.0169,-0.017,-0.0171,0,0.0242,0.0229,0.0234,0.0232,0.0262,0.0263,0.0307,0.0332,0.0371,0.0414,0.044,0.0367,0.031,0.0178,-0.0011,-0.012,-0.0125,-0.0168,-0.0136,-0.014,-0.0145,-0.0121,-0.0099,-0.0099,-0.01,-0.0101,0,0,0.0219,0.0193,0.0194,0.0214,0.0231,0.0283,0.0307,0.0348,0.0394,0.0429,0.0441,0.0497,0.0362,0.0232,0.0108,-0.0007,-0.0061,-0.003,-0.0063,-0.001,-0.0015,-0.012,-0.0081,0,0,0,0,0]}],[{"header":{"parameterUnit":"m.s-1","parameterCategory":2,"la1":30.2991,"la2":30.254,"lo1":-89.0895,"lo2":-89.0444,"dy":0.0017,"dx":0.0017,"nx":28,"ny":28,"refTime":"2024-07-24T03:00:00:Z","depth":"4","parameterNumber":2,"parameterNumberName":"U-component_of_CURRENTS"},"data":[0,0,0,0,0,0,0,0,0,0,0,0,0,0,0,0,0,0,0,0,0,0,0,0,0,0,0,0,0,0,0,0,0,0,0,0,0,0,0,0,0,0,0,0,0,0,0,0,0,0,0,0,0,0,0,0,0,0,0.009,0.0089,0,0.003,0.003,0.0029,0.0033,0.0034,0.0035,0.0035,-0.002,-0.0022,-0.0024,0,0,0,0,0,0,0,0,0,0,0,0,0,0.014,0.014,0.009,0.0089,0.0088,0.0031,0.003,0.0029,0.0033,0.0034,0.0035,0.0036,-0.002,-0.0022,-0.0025,0,0,0,0,0,0,0,0,0,0,0,0,0,0.0106,0.014,0.009,0.0081,0.008,0.0031,0.003,0.0029,0.0033,0.0034,0.0035,0.0036,-0.0019,-0.0022,-0.0025,-0.0064,0,0,-0.0035,-0.0036,0,0,0,0,0,0,0,0,0.0108,0.0104,0.0084,0.0082,0.008,0.0038,0.0027,-0.0003,0.0033,0.0053,0.0035,0.0037,-0.0003,-0.0007,-0.0017,-0.0067,-0.0069,-0.0035,-0.0037,-0.0038,-0.0039,0,0,0,0,0,0,0,0.011,0.0106,0.0069,0.0082,0.008,0.0057,0.0054,0.0021,0.0022,0.0052,0.0051,0.0041,-0.0003,-0.0014,-0.0019,-0.007,-0.0035,-0.0038,-0.004,-0.0041,-0.0148,-0.0149,0,0,0,0,0,0,0.0115,0.0109,0.0071,0.0067,0.0094,0.0056,0.0052,0.0053,0.0023,0.0018,0.004,0.0041,-0.0009,-0.0015,-0.002,-0.0047,-0.0038,-0.0041,-0.0043,-0.0147,-0.0148,-0.0149,0,0,0,0,0,0,0.0117,0.0113,0.0073,0.0084,0.0077,0.0054,0.0054,0.0051,0.0052,0.0013,0.001,0.0045,-0.0009,-0.0016,-0.0037,-0.0049,-0.0043,-0.0045,-0.0146,-0.0147,-0.0149,-0.0113,0,0,0,0,0,0,0.0118,0.0114,0.012,0.0085,0.0077,0.0053,0.0053,0.0049,0.0042,0.0043,0.0016,0.0011,-0.0008,-0.0032,-0.004,-0.0054,-0.0048,-0.0145,-0.0146,-0.0148,-0.0113,-0.0113,-0.0114,0,0,0,0,0,0.0121,0.012,0.0121,0.0116,0.0085,0.0053,0.0047,0.0035,0.0041,0.004,0.0026,0.0013,-0.005,-0.0035,-0.0044,-0.0059,-0.0144,-0.0146,-0.0148,-0.0113,-0.0113,-0.0114,0,0,0,0,0,0,0.0138,0.0119,0.0119,0.0112,0.009,0.0053,0.0045,0.004,0.0027,0.0032,0.0007,-0.0,-0.0027,-0.0051,-0.0034,-0.0098,-0.0102,-0.0106,-0.0073,-0.0073,-0.0073,-0.0055,-0.005,0,0,0,0,0,0.0146,0.0145,0.0118,0.0111,0.0103,0.0078,0.0066,0.0058,0.0037,0.0034,0.0016,-0.0012,-0.0049,-0.0062,-0.0095,-0.0125,-0.0123,-0.0145,-0.0145,-0.0145,-0.0138,-0.0159,-0.016,-0.0156,-0.0156,-0.0156,0,0,0.0147,0.0137,0.0135,0.0115,0.0097,0.0084,0.0074,0.0057,0.0052,0.0027,0.0021,-0.0011,-0.0057,-0.009,-0.0105,-0.0106,-0.0139,-0.0148,-0.0147,-0.014,-0.0161,-0.0161,-0.0161,-0.0158,-0.0157,-0.0157,0,0,0.0142,0.0143,0.0141,0.0127,0.0105,0.009,0.0091,0.0065,0.0064,0.0046,0.0022,-0.0007,-0.0056,-0.0088,-0.0114,-0.0137,-0.0139,-0.0157,-0.014,-0.016,-0.016,-0.016,-0.0122,-0.0119,-0.0156,-0.0156,-0.0156,0,0.0147,0.0143,0.0132,0.0123,0.0113,0.0098,0.0091,0.008,0.0055,0.0051,0.005,-0.0024,-0.0056,-0.0105,-0.0113,-0.0136,-0.0128,-0.0131,-0.0157,-0.0158,-0.0158,-0.012,-0.0116,-0.0154,-0.0154,-0.0155,-0.0155,0,0.0137,0.0137,0.0131,0.0124,0.0112,0.0101,0.0086,0.0085,0.0082,0.0068,0.0035,-0.001,-0.0054,-0.0078,-0.0101,-0.0134,-0.0118,-0.0152,-0.0148,-0.0156,-0.0115,-0.0112,-0.0152,-0.0153,-0.0153,-0.0153,0,0,0.0146,0.013,0.0131,0.0132,0.0116,0.0105,0.0101,0.0089,0.0089,0.0066,0.0056,-0.0009,-0.0027,-0.0058,-0.0098,-0.0116,-0.0102,-0.013,-0.0132,-0.0074,-0.01,-0.0022,-0.0011,-0.0142,-0.0143,-0.0143,-0.0056,0,0.0146,0.0138,0.013,0.0126,0.0121,0.0113,0.0109,0.0099,0.0089,0.0079,0.0037,0.0005,-0.0023,-0.0049,-0.007,-0.0108,-0.01,-0.0119,-0.0118,-0.0116,-0.0033,-0.0008,-0.0144,-0.0054,-0.0054,-0.0053,-0.0053,0,0.0145,0.0142,0.0138,0.0135,0.0133,0.0128,0.0127,0.0118,0.01,0.0092,0.006,0.0031,-0.0005,-0.0031,-0.0061,-0.0072,-0.0075,-0.009,-0.0088,-0.0027,-0.0034,-0.0058,-0.0048,-0.0048,-0.0049,-0.0049,-0.0049,0,0.0159,0.0152,0.0154,0.015,0.014,0.0141,0.0135,0.0122,0.0117,0.0094,0.0092,0.0048,0.0032,-0.0001,-0.0012,-0.0045,-0.0018,-0.0074,0.0008,0.0016,-0.0096,-0.0098,-0.0076,-0.0076,-0.0076,-0.0076,-0.0077,0,0.0163,0.0168,0.0162,0.016,0.0163,0.0151,0.0148,0.014,0.0125,0.0122,0.0093,0.0087,0.0036,0.0045,0.0017,0.0051,0.001,0.0035,0.0039,-0.0079,-0.008,-0.0091,-0.0094,-0.0073,-0.0074,-0.0074,-0.0075,0,0.0173,0.017,0.0172,0.0168,0.0166,0.0165,0.0152,0.0151,0.0142,0.0137,0.0132,0.0127,0.0144,0.0137,0.0114,0.0112,0.0113,0.014,0.0082,0.0077,0.0157,0.0154,0.0225,0.0228,0.0231,0.0234,0.0236,0,0.0174,0.0177,0.0177,0.0178,0.0174,0.0169,0.0166,0.0153,0.0149,0.016,0.016,0.0196,0.0195,0.0249,0.0226,0.0243,0.0227,0.0255,0.0145,0.0189,0.0185,0.0178,0.0172,0.024,0.0241,0.0242,0.0242,0,0.0177,0.0183,0.0186,0.0189,0.0187,0.0179,0.0172,0.0168,0.0162,0.0167,0.0195,0.0222,0.0275,0.0279,0.0336,0.0318,0.0236,0.0283,0.0275,0.0172,0.0208,0.02,0.019,0.0252,0.0251,0.025,0.0249,0,0.0186,0.0188,0.0196,0.0192,0.0202,0.0191,0.0177,0.0182,0.018,0.0191,0.0208,0.0246,0.027,0.0323,0.0347,0.0379,0.0344,0.0314,0.0303,0.0292,0.0274,0.0327,0.0431,0,0,0,0,0,0.0194,0.0192,0.0195,0.0187,0.0201,0.0199,0.0191,0.0176,0.0173,0.0199,0.0202,0.0247,0.031,0.0328,0.0371,0.0375,0.0343,0.0426,0.0301,0.0308,0.0296,0.0269,0,0,0,0,0,0,0.0194,0.0208,0.0195,0.0193,0.0189,0.019,0.0185,0.0174,0.0182,0.0192,0.0221,0.0257,0.031,0.0287,0.0371,0.0383,0.0309,0.0458,0.0459,0.0314,0.0304,0.0294,0.0262,0,0,0,0,0]},{"header":{"parameterUnit":"m.s-1","parameterCategory":2,"la1":30.2991,"la2":30.254,"lo1":-89.0895,"lo2":-89.0444,"dy":0.0017,"dx":0.0017,"nx":28,"ny":28,"refTime":"2024-07-24T03:00:00:Z","depth":"4","parameterNumber":3,"parameterNumberName":"V-component_of_CURRENTS"},"data":[0,0,0,0,0,0,0,0,0,0,0,0,0,0,0,0,0,0,0,0,0,0,0,0,0,0,0,0,0,0,0,0,0,0,0,0,0,0,0,0,0,0,0,0,0,0,0,0,0,0,0,0,0,0,0,0,0,0,-0.0028,-0.0028,0,-0.0063,-0.0064,-0.0064,-0.0058,-0.0057,-0.0056,-0.0056,-0.0101,-0.0103,-0.0105,0,0,0,0,0,0,0,0,0,0,0,0,0,0.0069,0.0067,-0.0028,-0.0028,-0.0029,-0.0063,-0.0064,-0.0064,-0.0058,-0.0057,-0.0056,-0.0055,-0.01,-0.0103,-0.0105,0,0,0,0,0,0,0,0,0,0,0,0,0,0.0029,0.0066,-0.0028,-0.0029,-0.003,-0.0063,-0.0064,-0.0065,-0.0058,-0.0057,-0.0056,-0.0055,-0.01,-0.0102,-0.0105,-0.0143,0,0,-0.0114,-0.0115,0,0,0,0,0,0,0,0,0.0031,0.0025,-0.0029,-0.0029,-0.003,-0.0055,-0.0046,-0.0091,-0.0058,-0.0048,-0.0056,-0.0054,-0.0087,-0.0091,-0.01,-0.0145,-0.0147,-0.0114,-0.0116,-0.0117,-0.0118,0,0,0,0,0,0,0,0.0034,0.0027,-0.0043,-0.0029,-0.003,-0.002,-0.0025,-0.0055,-0.0073,-0.0049,-0.0048,-0.0051,-0.0087,-0.0098,-0.0101,-0.0148,-0.0114,-0.0116,-0.0118,-0.0119,-0.0238,-0.024,0,0,0,0,0,0,0.0036,0.0029,-0.0042,-0.0044,0.0004,-0.0022,-0.0028,-0.0048,-0.0073,-0.0075,-0.0052,-0.0051,-0.0093,-0.0098,-0.0103,-0.0156,-0.0117,-0.0119,-0.0121,-0.0237,-0.0239,-0.024,0,0,0,0,0,0,0.0038,0.003,-0.004,-0.0006,-0.0014,-0.0025,-0.0048,-0.0049,-0.0058,-0.0075,-0.0078,-0.0059,-0.0093,-0.0099,-0.0149,-0.0157,-0.0121,-0.0123,-0.0235,-0.0237,-0.0239,-0.0258,0,0,0,0,0,0,0.0041,0.003,0.0016,-0.0007,-0.0016,-0.0066,-0.0049,-0.0051,-0.0062,-0.006,-0.0083,-0.0086,-0.0092,-0.0145,-0.0152,-0.016,-0.0125,-0.0233,-0.0236,-0.0239,-0.0255,-0.026,-0.0265,0,0,0,0,0,0.0044,0.0005,0.0015,0.0007,-0.0036,-0.0067,-0.0071,-0.0075,-0.0063,-0.0077,-0.0101,-0.0085,-0.0167,-0.015,-0.0157,-0.0166,-0.0232,-0.0235,-0.0238,-0.0253,-0.0259,-0.0265,0,0,0,0,0,0,0.0024,0.0002,0.0012,-0.0035,-0.0045,-0.0065,-0.0084,-0.0079,-0.0108,-0.0109,-0.0116,-0.0123,-0.0169,-0.0174,-0.0154,-0.021,-0.0192,-0.0197,-0.0201,-0.0207,-0.0211,-0.0208,-0.0128,0,0,0,0,0,0.0018,-0.0009,-0.0022,-0.0059,-0.0064,-0.0069,-0.0081,-0.0083,-0.0109,-0.0119,-0.0138,-0.0162,-0.019,-0.0203,-0.0234,-0.0271,-0.0263,-0.0279,-0.0284,-0.0287,-0.0292,-0.0288,-0.0292,-0.0251,-0.0251,-0.0251,0,0,-0.0003,-0.0016,-0.0034,-0.0062,-0.0071,-0.0093,-0.0075,-0.0102,-0.0129,-0.0123,-0.0176,-0.0187,-0.0208,-0.025,-0.0268,-0.0252,-0.0299,-0.0292,-0.0294,-0.0297,-0.0292,-0.0295,-0.0298,-0.0254,-0.0253,-0.0253,0,0,-0.0049,-0.0065,-0.0091,-0.01,-0.0111,-0.0121,-0.0126,-0.0149,-0.0166,-0.0215,-0.0215,-0.024,-0.0285,-0.03,-0.0311,-0.0365,-0.033,-0.0359,-0.0373,-0.0369,-0.0371,-0.0373,-0.0375,-0.0378,-0.0353,-0.0353,-0.0353,0,-0.0065,-0.0099,-0.0105,-0.0124,-0.0136,-0.0132,-0.0158,-0.0184,-0.0224,-0.0245,-0.0239,-0.03,-0.0314,-0.0353,-0.0362,-0.0375,-0.0359,-0.0344,-0.0372,-0.0374,-0.0376,-0.0377,-0.0379,-0.0354,-0.0354,-0.0354,-0.0354,0,-0.0119,-0.014,-0.016,-0.0179,-0.0198,-0.0223,-0.0246,-0.0275,-0.0289,-0.0307,-0.0356,-0.0377,-0.0399,-0.0405,-0.0398,-0.0414,-0.0396,-0.0382,-0.035,-0.038,-0.0381,-0.0383,-0.0356,-0.0355,-0.0355,-0.0355,0,0,-0.0163,-0.0189,-0.0193,-0.0195,-0.0223,-0.0243,-0.0298,-0.0338,-0.0362,-0.0401,-0.043,-0.0474,-0.0455,-0.0466,-0.0453,-0.0447,-0.0446,-0.0407,-0.0406,-0.0397,-0.0428,-0.0377,-0.0374,-0.0417,-0.0417,-0.0417,-0.0425,0,-0.0192,-0.0227,-0.0242,-0.0278,-0.0292,-0.0309,-0.0355,-0.0393,-0.0422,-0.0455,-0.0474,-0.0495,-0.0486,-0.047,-0.0472,-0.0448,-0.045,-0.0445,-0.0412,-0.0412,-0.0351,-0.0374,-0.0418,-0.0426,-0.0426,-0.0426,-0.0427,0,-0.0227,-0.0241,-0.028,-0.0303,-0.0313,-0.0343,-0.0391,-0.043,-0.0479,-0.0494,-0.0516,-0.0514,-0.0522,-0.0497,-0.0493,-0.0478,-0.0458,-0.0444,-0.0444,-0.039,-0.0363,-0.039,-0.0429,-0.0429,-0.0429,-0.0429,-0.0429,0,-0.0233,-0.0265,-0.0293,-0.0302,-0.034,-0.0367,-0.0391,-0.0444,-0.0466,-0.05,-0.0496,-0.0525,-0.0504,-0.0504,-0.0474,-0.0468,-0.0459,-0.0453,-0.0404,-0.0401,-0.0435,-0.0432,-0.0458,-0.0458,-0.0458,-0.0458,-0.0458,0,-0.025,-0.0272,-0.0294,-0.0308,-0.0339,-0.0365,-0.0403,-0.0434,-0.0462,-0.0467,-0.0495,-0.0483,-0.0493,-0.0485,-0.048,-0.0442,-0.0466,-0.0413,-0.0398,-0.0445,-0.0444,-0.0436,-0.0433,-0.0458,-0.0458,-0.0458,-0.0458,0,-0.026,-0.0275,-0.0301,-0.0334,-0.0343,-0.0364,-0.039,-0.0409,-0.0431,-0.0431,-0.0426,-0.0437,-0.0412,-0.0435,-0.0423,-0.0423,-0.0413,-0.0396,-0.0451,-0.0439,-0.0362,-0.0361,-0.0352,-0.035,-0.0348,-0.0347,-0.0346,0,-0.0268,-0.0283,-0.0312,-0.0316,-0.0333,-0.0356,-0.037,-0.0395,-0.0394,-0.0391,-0.0376,-0.0358,-0.036,-0.0319,-0.0351,-0.0363,-0.0355,-0.0366,-0.0367,-0.0364,-0.0351,-0.0352,-0.0352,-0.0344,-0.0343,-0.0343,-0.0342,0,-0.0278,-0.0294,-0.0313,-0.0312,-0.0323,-0.0329,-0.0336,-0.0324,-0.0332,-0.0351,-0.0293,-0.0284,-0.026,-0.0267,-0.0273,-0.0286,-0.0372,-0.035,-0.0353,-0.0355,-0.0354,-0.0343,-0.0345,-0.0337,-0.0338,-0.0338,-0.0339,0,-0.028,-0.0289,-0.0298,-0.0292,-0.03,-0.0279,-0.0299,-0.0268,-0.0262,-0.0246,-0.0223,-0.0219,-0.0226,-0.0226,-0.0237,-0.024,-0.0241,-0.025,-0.0259,-0.0265,-0.0236,-0.0223,-0.0154,0,0,0,0,0,-0.0256,-0.025,-0.0263,-0.0249,-0.0258,-0.0237,-0.0256,-0.027,-0.0265,-0.0205,-0.0206,-0.0177,-0.0167,-0.018,-0.0167,-0.0228,-0.0264,-0.0215,-0.0284,-0.0308,-0.0314,-0.029,0,0,0,0,0,0,-0.0236,-0.0246,-0.0248,-0.0202,-0.0168,-0.0163,-0.0158,-0.017,-0.0134,-0.0137,-0.0129,-0.0144,-0.0144,-0.0139,-0.0143,-0.0153,-0.0192,-0.0224,-0.0223,-0.0305,-0.031,-0.0315,-0.0293,0,0,0,0,0]}]]